Content
SEND FEEDBACK

Daily
Averages
Monthly
Summary
United States of America

CISCO, CALIFORNIA


Home > North America > United States > California
Elevation: 5750 feet     Latitude: 39 18N     Longitude: 120 31W

WEATHER
 
SELECT A DAY
Number of Records: 233,197;   Date Range: 1/1/95 - 9/29/14
 
SHARE

PRINT THIS DATA

[ ← Previous Day ]
WEATHER ALMANAC - FEBRUARY 16, 2013
[ Next Day → ]
[ °C ]   °F
Weather ElementAverageHighLow
Temperature48.8 °F53.1 °F (8:52 am)43 °F (10:52 pm)
Dewpoint19.4 °F32 °F (7:52 pm)5 °F (1:52 am)
Humidity35 %60 % (7:52 pm)15 % (1:52 am)
Barometer30.11 in30.21 in (1:52 am)30.01 in (11:52 pm)
Wind Speed1.9 mph6.9 mph (12:52 pm)
Weather ElementAverage
Visibility10 mi
Wind DirectionENE (74.3 °)

Weather ElementTotal
Precipitation---
Heating Degree Days17 (Base 65)
Averaged from 23 records on February 16, 2013
WEATHER CONDITIONS BREAKOUT
WIND DIRECTION BREAKOUT
WEATHER BY HOUR - FEBRUARY 16, 2013
[ °C ]   °F
Local TimeTemperatureDewpointHumidityBarometerVisibilityWind DirectionWind SpeedGust SpeedPrecipitationEventsConditions
1:52 AM51.1 °F5.0 °F15 %30.21 in10.0 miCalmClear
2:52 AM50.0 °F8.1 °F18 %30.20 in10.0 miCalmClear
3:52 AM48.9 °F9.0 °F20 %30.19 in10.0 miCalmClear
4:52 AM48.9 °F8.1 °F19 %30.19 in10.0 miCalmClear
5:52 AM48.0 °F7.0 °F19 %30.20 in10.0 miCalmClear
6:52 AM48.9 °F7.0 °F18 %30.18 in10.0 miCalmClear
7:52 AM48.9 °F8.1 °F19 %30.18 in10.0 miCalmClear
8:52 AM53.1 °F10.9 °F19 %30.17 in10.0 miCalmClear
9:52 AM53.1 °F10.9 °F19 %30.16 in10.0 miCalmClear
10:52 AM53.1 °F14.0 °F21 %30.15 in10.0 miSouth (170°)5.8 mphClear
11:52 AM52.0 °F18.0 °F26 %30.14 in10.0 miSouth (170°)5.8 mphClear
12:52 PM53.1 °F19.9 °F27 %30.11 in10.0 miWSW (250°)6.9 mphClear
1:52 PM52.0 °F23.0 °F32 %30.09 in10.0 miWest (270°)6.9 mphClear
2:52 PM51.1 °F28.0 °F41 %30.08 in10.0 miWest (260°)4.6 mphClear
3:52 PM51.1 °F28.9 °F43 %30.07 in10.0 miCalmClear
4:52 PM48.9 °F28.9 °F46 %30.06 in10.0 miCalmClear
5:52 PM46.0 °F30.9 °F56 %30.07 in10.0 miCalmClear
6:52 PM45.0 °F30.9 °F58 %30.06 in10.0 miSE (140°)3.5 mphClear
7:52 PM45.0 °F32.0 °F60 %30.05 in10.0 miCalmClear
8:52 PM45.0 °F30.9 °F58 %30.03 in10.0 miSouth (180°)3.5 mphClear
9:52 PM44.1 °F30.9 °F60 %30.02 in10.0 miSE (130°)3.5 mphClear
10:52 PM43.0 °F28.0 °F56 %30.02 in10.0 miCalmClear
11:52 PM43.0 °F28.0 °F56 %30.01 in10.0 miSE (140°)3.5 mphClear
Hourly data recorded from KBLU, located miles away from Cisco, California







STORIES FROM OUR PARTNERS